Weather History for Waupaca, WI

Change the Weather History Date:

Friday, December 21, 2012

  Actual Average Record
Temperature  
Mean Temperature 25 °F -  
Max Temperature 33 °F 27 °F 51 °F (1967)
Min Temperature 17 °F 9 °F -22 °F (1989)
Degree Days  
Heating Degree Days 40    
Moisture  
Dew Point 20 °F    
Average Humidity 74    
Maximum Humidity 81    
Minimum Humidity 64    
Precipitation  
Precipitation 0.00 in - - ()
Sea Level Pressure  
Sea Level Pressure 29.95 in    
Wind  
Wind Speed 14 mph (NW)    
Max Wind Speed 21 mph    
Max Gust Speed 29 mph    
Visibility 10 miles    
Events      
Averages and records for this station are not official NWS values.
T = Trace of Precipitation, MM = Missing Value Source: NWS Daily Summary

Daily Weather History Graph

Daily Weather History Graph

Search for Another Location

Airport:

Trip Planner

Search our weather history database for the weather conditions in past years. The results will help you decide how hot, cold, wet, or windy it might be!

Date:

Astronomy

Dec. 21, 2012 Rise Set
Actual Time 7:29 AM CST 4:19 PM CST
Civil Twilight 6:55 AM CST 4:53 PM CST
Nautical Twilight 6:18 AM CST 5:30 PM CST
Astronomical Twilight 5:43 AM CST 6:05 PM CST
Moon 12:15 PM CST (12/21) 1:06 AM CST (12/21)
Length of Visible Light 9h 57m
Length of Day
8h 50m
Waxing Gibbous, 65% of the Moon is Illuminated
Dec 21
Waxing Gibbous
Dec 28
Full
Jan 4
Last Quarter
Jan 11
New
Jan 18
First Quarter

Hourly Weather History & Observations

Time (CST) Temp. Windchill Dew Point Humidity Pressure Visibility Wind Dir Wind Speed Gust Speed Precip Events Conditions
12:15 AM 33.8 °F 23.5 °F 28.4 °F 81% 29.58 in 10.0 mi NNW 16.1 mph 21.9 mph N/A   Overcast
12:35 AM 33.8 °F 22.8 °F 28.4 °F 81% 29.58 in 10.0 mi NNW 18.4 mph 26.5 mph N/A   Mostly Cloudy
12:55 AM 33.8 °F 23.9 °F 28.4 °F 81% 29.60 in 10.0 mi NW 15.0 mph 23.0 mph N/A   Mostly Cloudy
1:15 AM 33.8 °F 23.5 °F 26.6 °F 75% 29.61 in 10.0 mi NW 16.1 mph 24.2 mph N/A   Overcast
1:55 AM 32.0 °F 21.6 °F 26.6 °F 80% 29.65 in 10.0 mi NW 15.0 mph 25.3 mph N/A   Overcast
2:15 AM 32.0 °F 20.8 °F 26.6 °F 80% 29.66 in 10.0 mi NW 17.3 mph 25.3 mph N/A   Overcast
2:35 AM 32.0 °F 20.5 °F 26.6 °F 80% 29.68 in 10.0 mi NW 18.4 mph 28.8 mph N/A   Overcast
2:55 AM 32.0 °F 20.5 °F 24.8 °F 75% 29.69 in 10.0 mi NW 18.4 mph 27.6 mph N/A   Overcast
3:15 AM 32.0 °F 21.6 °F 24.8 °F 75% 29.69 in 10.0 mi NW 15.0 mph 25.3 mph N/A   Overcast
3:35 AM 32.0 °F 20.8 °F 24.8 °F 75% 29.71 in 10.0 mi NW 17.3 mph 25.3 mph N/A   Overcast
3:55 AM 32.0 °F 20.1 °F 24.8 °F 75% 29.71 in 10.0 mi NW 19.6 mph 25.3 mph N/A   Overcast
4:15 AM 32.0 °F 21.2 °F 24.8 °F 75% 29.73 in 10.0 mi NW 16.1 mph 21.9 mph N/A   Overcast
4:35 AM 32.0 °F 20.1 °F 23.0 °F 69% 29.74 in 10.0 mi NW 19.6 mph 26.5 mph N/A   Overcast
4:55 AM 32.0 °F 21.6 °F 24.8 °F 75% 29.76 in 10.0 mi NW 15.0 mph 23.0 mph N/A   Overcast
5:15 AM 32.0 °F 21.2 °F 24.8 °F 75% 29.77 in 10.0 mi WNW 16.1 mph 24.2 mph N/A   Overcast
5:55 AM 30.2 °F 18.9 °F 24.8 °F 80% 29.80 in 10.0 mi NW 16.1 mph 25.3 mph N/A   Overcast
6:15 AM 30.2 °F 18.1 °F 23.0 °F 75% 29.81 in 10.0 mi NW 18.4 mph 24.2 mph N/A   Overcast
6:35 AM 30.2 °F 19.3 °F 23.0 °F 75% 29.83 in 10.0 mi NW 15.0 mph 26.5 mph N/A   Overcast
6:55 AM 28.4 °F 16.6 °F 23.0 °F 80% 29.84 in 10.0 mi NW 16.1 mph 24.2 mph N/A   Overcast
7:15 AM 28.4 °F 16.2 °F 21.2 °F 74% 29.86 in 10.0 mi NW 17.3 mph 20.7 mph N/A   Overcast
7:35 AM 28.4 °F 16.6 °F 21.2 °F 74% 29.88 in 10.0 mi NW 16.1 mph 24.2 mph N/A   Overcast
7:55 AM 28.4 °F 17.5 °F 21.2 °F 74% 29.89 in 10.0 mi NW 13.8 mph 25.3 mph N/A   Overcast
8:15 AM 28.4 °F 15.8 °F 21.2 °F 74% 29.90 in 10.0 mi NW 18.4 mph 25.3 mph N/A   Overcast
8:35 AM 28.4 °F 15.1 °F 21.2 °F 74% 29.91 in 10.0 mi NW 20.7 mph 28.8 mph N/A   Overcast
8:55 AM 26.6 °F 13.1 °F 19.4 °F 74% 29.92 in 10.0 mi NW 19.6 mph 27.6 mph N/A   Overcast
9:15 AM 26.6 °F 14.3 °F 19.4 °F 74% 29.93 in 10.0 mi NW 16.1 mph 26.5 mph N/A   Overcast
9:35 AM 26.6 °F 15.2 °F 19.4 °F 74% 29.94 in 10.0 mi NW 13.8 mph 25.3 mph N/A   Overcast
9:55 AM 26.6 °F 14.3 °F 19.4 °F 74% 29.96 in 10.0 mi NW 16.1 mph 28.8 mph N/A   Overcast
10:15 AM 26.6 °F 14.3 °F 19.4 °F 74% 29.96 in 10.0 mi NW 16.1 mph 21.9 mph N/A   Overcast
10:35 AM 26.6 °F 14.3 °F 19.4 °F 74% 29.96 in 10.0 mi NW 16.1 mph 23.0 mph N/A   Overcast
10:55 AM 28.4 °F 17.5 °F 19.4 °F 69% 29.96 in 10.0 mi NW 13.8 mph 24.2 mph N/A   Overcast
11:15 AM 28.4 °F 16.2 °F 19.4 °F 69% 29.97 in 10.0 mi WNW 17.3 mph 24.2 mph N/A   Overcast
11:35 AM 28.4 °F 15.8 °F 19.4 °F 69% 29.97 in 10.0 mi NW 18.4 mph 23.0 mph N/A   Overcast
11:55 AM 28.4 °F 17.0 °F 21.2 °F 74% 29.97 in 10.0 mi NW 15.0 mph 20.7 mph N/A   Overcast
12:15 PM 28.4 °F 18.0 °F 21.2 °F 74% 29.98 in 10.0 mi NW 12.7 mph 20.7 mph N/A   Overcast
12:55 PM 30.2 °F 21.3 °F 21.2 °F 69% 29.99 in 10.0 mi WNW 10.4 mph 19.6 mph N/A   Overcast
1:15 PM 30.2 °F 21.3 °F 19.4 °F 64% 29.99 in 10.0 mi NW 10.4 mph - N/A   Mostly Cloudy
1:35 PM 30.2 °F 21.3 °F 21.2 °F 69% 30.00 in 10.0 mi WNW 10.4 mph 16.1 mph N/A   Mostly Cloudy
1:55 PM 30.2 °F 20.8 °F 19.4 °F 64% 30.01 in 10.0 mi NW 11.5 mph - N/A   Scattered Clouds
2:15 PM 30.2 °F 19.8 °F 19.4 °F 64% 30.01 in 10.0 mi NW 13.8 mph 21.9 mph N/A   Clear
2:35 PM 30.2 °F 19.8 °F 19.4 °F 64% 30.02 in 10.0 mi NW 13.8 mph 20.7 mph N/A   Clear
2:55 PM 30.2 °F 20.8 °F 19.4 °F 64% 30.03 in 10.0 mi NW 11.5 mph 18.4 mph N/A   Clear
3:15 PM 30.2 °F 20.8 °F 19.4 °F 64% 30.04 in 10.0 mi NW 11.5 mph 17.3 mph N/A   Clear
3:35 PM 30.2 °F 20.8 °F 19.4 °F 64% 30.05 in 10.0 mi WNW 11.5 mph 16.1 mph N/A   Clear
4:15 PM 28.4 °F 19.7 °F 19.4 °F 69% 30.07 in 10.0 mi WNW 9.2 mph 16.1 mph N/A   Clear
4:35 PM 26.6 °F 19.1 °F 19.4 °F 74% 30.09 in 10.0 mi NW 6.9 mph - N/A   Clear
4:55 PM 26.6 °F 17.5 °F 19.4 °F 74% 30.10 in 10.0 mi WNW 9.2 mph - N/A   Clear
5:15 PM 26.6 °F 19.1 °F 17.6 °F 69% 30.10 in 10.0 mi NW 6.9 mph - N/A   Clear
5:35 PM 26.6 °F 19.1 °F 17.6 °F 69% 30.11 in 10.0 mi WNW 6.9 mph - N/A   Clear
5:55 PM 23.0 °F 14.7 °F 17.6 °F 80% 30.12 in 10.0 mi West 6.9 mph - N/A   Clear
6:15 PM 23.0 °F 15.8 °F 17.6 °F 80% 30.12 in 10.0 mi WNW 5.8 mph - N/A   Clear
6:55 PM 21.2 °F 13.6 °F 15.8 °F 80% 30.13 in 10.0 mi West 5.8 mph - N/A   Clear
7:15 PM 21.2 °F 12.6 °F 15.8 °F 80% 30.14 in 10.0 mi West 6.9 mph - N/A   Clear
7:35 PM 21.2 °F 13.6 °F 15.8 °F 80% 30.15 in 10.0 mi WNW 5.8 mph - N/A   Clear
7:55 PM 21.2 °F 11.7 °F 15.8 °F 80% 30.15 in 10.0 mi West 8.1 mph - N/A   Clear
8:15 PM 23.0 °F 13.9 °F 15.8 °F 74% 30.15 in 10.0 mi WNW 8.1 mph - N/A   Clear
8:35 PM 21.2 °F 10.1 °F 14.0 °F 74% 30.15 in 10.0 mi WNW 10.4 mph - N/A   Clear
8:55 PM 21.2 °F 12.6 °F 14.0 °F 74% 30.15 in 10.0 mi NW 6.9 mph - N/A   Clear
9:15 PM 21.2 °F 14.9 °F 14.0 °F 74% 30.15 in 10.0 mi NW 4.6 mph - N/A   Clear
9:35 PM 21.2 °F 11.7 °F 14.0 °F 74% 30.15 in 10.0 mi WNW 8.1 mph - N/A   Clear
9:55 PM 19.4 °F 12.8 °F 14.0 °F 80% 30.16 in 10.0 mi West 4.6 mph - N/A   Clear
10:15 PM 17.6 °F 9.3 °F 12.2 °F 79% 30.16 in 10.0 mi West 5.8 mph - N/A   Clear
10:35 PM 17.6 °F 9.3 °F 12.2 °F 79% 30.16 in 10.0 mi West 5.8 mph - N/A   Clear
10:55 PM 17.6 °F 9.3 °F 12.2 °F 79% 30.16 in 10.0 mi West 5.8 mph - N/A   Clear
11:15 PM 17.6 °F 9.3 °F 10.4 °F 73% 30.16 in 10.0 mi WNW 5.8 mph - N/A   Clear
11:35 PM 17.6 °F 10.7 °F 10.4 °F 73% 30.16 in 10.0 mi WNW 4.6 mph - N/A   Clear
11:55 PM 17.6 °F 8.2 °F 10.4 °F 73% 30.16 in 10.0 mi WNW 6.9 mph - N/A   Clear